Satellite: NOAA-17
Catalog number: 27453
Epoch time:      11229.71558948
Element set:    0390
Inclination:      098.3739 deg
RA of node:       266.5888 deg
Eccentricity:    0.0011246
Arg of perigee:   333.7664 deg
Mean anomaly:     026.2957 deg
Mean motion:   14.24302611 rev/day
Decay rate:       2.33e-06 rev/day^2
Epoch rev:           47541
Checksum:              325

Satellite: NOAA-18
Catalog number: 28654
Epoch time:      11229.77101741
Element set:    0869
Inclination:      099.0002 deg
RA of node:       181.0840 deg
Eccentricity:    0.0013631
Arg of perigee:   293.6844 deg
Mean anomaly:     066.2900 deg
Mean motion:   14.11504243 rev/day
Decay rate:       4.12e-06 rev/day^2
Epoch rev:           32161
Checksum:              270

Satellite: NOAA-19
Catalog number: 33591
Epoch time:      11229.78192099
Element set:    0060
Inclination:      098.8284 deg
RA of node:       168.9069 deg
Eccentricity:    0.0014000
Arg of perigee:   158.2323 deg
Mean anomaly:     201.9523 deg
Mean motion:   14.11194044 rev/day
Decay rate:       1.69e-06 rev/day^2
Epoch rev:           13007
Checksum:              292

/EX
SB KEPS @ AMSAT  $ORB11230.M
Orbital Elements  11230.MISC

HR AMSAT ORBITAL ELEMENTS FOR MANNED AND MISCELLANEOUS SATELLITES
FROM WA5QGD FORT WORTH,TX August 18, 2011
Send Subscribe/unsubscribe to KEPS at http://www.amsat.org/mailman/listinfo/kep
BID: ORB11230.M
TO ALL RADIO AMATEURS BT

Satellite: HUBBLE
Catalog number: 20580
Epoch time:      11228.54174769
Element set:     818
Inclination:      028.4721 deg
RA of node:       342.1720 deg
Eccentricity:    0.0003387
Arg of perigee:   048.1642 deg
Mean anomaly:     311.9135 deg
Mean motion:   15.01456292 rev/day
Decay rate:       6.69e-06 rev/day^2
Epoch rev:           96873
Checksum:              299

Satellite: ISS
Catalog number: 25544
Epoch time:      11230.85663396
Element set:     913
Inclination:      051.6381 deg
RA of node:       205.3228 deg
Eccentricity:    0.0013017
Arg of perigee:   091.4932 deg
Mean anomaly:     351.4033 deg
Mean motion:   15.60429688 rev/day
Decay rate:      9.123e-05 rev/day^2
Epoch rev:           73069
Checksum:              288

Satellite: CO-58
Catalog number: 28895
Epoch time:      11229.67184915
Element set:    0952
Inclination:      097.9563 deg
RA of node:       103.6567 deg
Eccentricity:    0.0018604
Arg of perigee:   031.3359 deg
Mean anomaly:     328.8959 deg
Mean motion:   14.60148478 rev/day
Decay rate:        9.9e-07 rev/day^2
Epoch rev:           30921
Checksum:              358

Satellite: FALCON
Catalog number: 30776
Epoch time:      11229.68264524
Element set:     151
Inclination:      035.4349 deg
RA of node:       333.0029 deg
Eccentricity:    0.0001840
Arg of perigee:   288.8791 deg
Mean anomaly:     071.1726 deg
Mean motion:   15.04833451 rev/day
Decay rate:      1.192e-05 rev/day^2
Epoch rev:           24431
Checksum:              279

Satellite: MAST
Catalog number: 31126
Epoch time:      11230.66861917
Element set:     237
Inclination:      097.8932 deg
RA of node:       254.3576 deg
Eccentricity:    0.0094201
Arg of perigee:   336.9890 deg
Mean anomaly:     022.7105 deg
Mean motion:   14.53786447 rev/day
Decay rate:       1.26e-06 rev/day^2
Epoch rev:           23016
Checksum:              296

Satellite: CAPE1
Catalog number: 31130
Epoch time:      11229.61068241
Element set:    0252
Inclination:      097.8957 deg
RA of node:       250.0363 deg
Eccentricity:    0.0102181
Arg of perigee:   351.3200 deg
Mean anomaly:     008.6227 deg
Mean motion:   14.52441092 rev/day
Decay rate:       1.50e-06 rev/day^2
Epoch rev:           22955
Checksum:              247

Satellite: COMPASS
Catalog number: 32787
Epoch time:      11229.63127848
Element set:    0069
Inclination:      097.8423 deg
RA of node:       292.2919 deg
Eccentricity:    0.0015362
Arg of perigee:   340.1555 deg
Mean anomaly:     019.9009 deg
Mean motion:   14.82543068 rev/day
Decay rate:       8.95e-06 rev/day^2
Epoch rev:           17866
Checksum:              331

Satellite: AAUSAT2
Catalog number: 32788
Epoch time:      11230.66684134
Element set:      58
Inclination:      097.8420 deg
RA of node:       293.5514 deg
Eccentricity:    0.0014699
Arg of perigee:   337.4626 deg
Mean anomaly:     022.5956 deg
Mean motion:   14.82735668 rev/day
Decay rate:       5.69e-06 rev/day^2
Epoch rev:           17883
Checksum:              342

Satellite: DO-64
Catalog number: 32789
Epoch time:      11229.91302591
Element set:    0075
Inclination:      097.8529 deg
RA of node:       293.9384 deg
Eccentricity:    0.0014782
Arg of perigee:   337.6535 deg
Mean anomaly:     022.4012 deg
Mean motion:   14.83270551 rev/day
Decay rate:       8.88e-06 rev/day^2
Epoch rev:           17873
Checksum:              335

Satellite: CO-66
Catalog number: 32791
Epoch time:      11230.80880714
Element set:      62
Inclination:      097.8428 deg
RA of node:       293.3668 deg
Eccentricity:    0.0015532
Arg of perigee:   336.0488 deg
Mean anomaly:     023.9985 deg
Mean motion:   14.82215693 rev/day
Decay rate:       6.83e-06 rev/day^2
Epoch rev:           17878
Checksum:              343

